Weather Roundup
Issued by NWS

Home | Current Version | Previous Version | Text Only | Print | Product List | Glossary On
Versions: 1 2 3 4 5 6 7 8 9 10 11 12 13 14 15 16 17 18 19 20 21 22 23 24 25 26 27 28 29 30 31 32 33 34 35 36 37 38 39 40 41 42 43 44 45 46 47 48 49 50
000
NZUS93 KARX 270959
HRRWXR

CURRENT HOURLY OBSERVATIONS ACROSS
MUCH OF THE UPPER MISSISSIPPI VALLEY
NATIONAL WEATHER SERVICE LA CROSSE WI
500 AM CDT FRI MAY 27 2016


...SOUTHEAST MINNESOTA...


CITY           SKY/WX    TMP DP  RH WIND       PRES   REMARKS
ROCHESTER      CLOUDY    62  61  96 S3        29.86R
ROCHESTER/MAYO CLOUDY    63  63  97 E3        29.85S
WINONA         CLOUDY    63  61  94 SE3       29.84R
AUSTIN         LGT RAIN  63  57  82 CALM      29.84R
ALBERT LEA     CLOUDY    66  55  68 SE9       29.82F
DODGE CENTER   CLOUDY    63  57  82 S5        29.84S
PRESTON        CLOUDY    61  57  88 S6        29.87R
OWATONNA       LGT RAIN  66  54  63 SE8       29.82S
FARIBAULT      NOT AVBL
$$

...ELSEWHERE IN MINNESOTA...


CITY           SKY/WX    TMP DP  RH WIND       PRES   REMARKS
MINNEAPOLIS    CLOUDY    68  55  63 SE9       29.81S
INTNL FALLS    PTCLDY    49  47  93 CALM      29.82R
DULUTH         CLOUDY    50  47  89 CALM      29.84R
RED WING       CLOUDY    64  61  88 E3        29.82F
REDWOOD FALLS  CLOUDY    61  56  83 S7        29.77F
MANKATO        CLOUDY    64  54  68 S9        29.80S
WORTHINGTON    PTCLDY    60  56  86 SE6       29.79F
FAIRMONT       CLOUDY    63  54  72 S5G16     29.79F
$$

...SOUTHWEST WISCONSIN...


CITY           SKY/WX    TMP DP  RH WIND       PRES   REMARKS
LA CROSSE      CLOUDY    65  60  84 E3        29.83R
PRAIRIE DU CHI RAIN      65  63  93 CALM      29.85S
BOSCOBEL       CLOUDY    65  63  93 NE3       29.83F
LONE ROCK      NOT AVBL
PLATTEVILLE    CLOUDY    65  63  92 S22G39    29.91R
FORT MC COY    CLOUDY    59  58  98 CALM      29.86F
CAMP DOUGLAS   CLOUDY    57 N/A N/A E2        29.85F
MAUSTON-NEW LI CLOUDY    59  59  98 CALM      29.86F
VIROQUA        FAIR      62  61  94 E5        29.86F
WIS DELLS      CLOUDY    61  58  91 CALM      29.87F
$$

...ELSEWHERE IN WISCONSIN...


CITY           SKY/WX    TMP DP  RH WIND       PRES   REMARKS
MILWAUKEE      MOCLDY    69  64  84 SW6       29.87F
MADISON        CLOUDY    60  57  89 CALM      29.85F
GREEN BAY      CLEAR     58  56  93 CALM      29.88S FOG
EAU CLAIRE     NOT AVBL
BLACK RVR FLS  FAIR      59  59 100 CALM      29.85R
MEDFORD        CLEAR     54  54 100 E3        29.88S
WAUSAU         CLOUDY    57  55  93 CALM      29.88R FOG
WIS RAPIDS     CLOUDY    57  55  93 NE3       29.88F
MARSHFIELD     CLOUDY    58  55  90 NE5       29.87S
RICE LAKE      CLOUDY    58  55  92 CALM      29.88S
$$

...NORTHEAST IOWA...


CITY           SKY/WX    TMP DP  RH WIND       PRES   REMARKS
WATERLOO       LGT RAIN  62  60  93 E5        29.82F
DUBUQUE        CLOUDY    62  59  90 CALM      29.86F
DECORAH        CLOUDY    64  59  82 SE5       29.85F
MASON CITY     CLOUDY    61  59  93 SE5       29.85F
CHARLES CITY   CLOUDY    63  63 100 CALM      29.87R
OELWEIN        RAIN      64  63  94 NE7       29.86F
$$

...ELSEWHERE IN IOWA...


CITY           SKY/WX    TMP DP  RH WIND       PRES   REMARKS
DES MOINES     LGT RAIN  64  59  83 N3        29.81R
IOWA CITY      CLOUDY    64  61  90 E7        29.80F
FORT DODGE     CLOUDY    63  55  77 E8        29.81F
MARSHALLTOWN   CLOUDY    62  60  93 NE6       29.82F
CEDAR RAPIDS   MOCLDY    62  62 100 NE7       29.80F
$$

...NORTHERN ILLINOIS...


CITY           SKY/WX    TMP DP  RH WIND       PRES   REMARKS
CHICAGO-OHARE  CLOUDY    68  64  87 S8        29.90R
CHICAGO-MIDWAY CLOUDY    69  63  81 S9        29.90S
MOLINE         CLOUDY    64  61  90 CALM      29.80F
ROCKFORD       CLOUDY    72  67  84 W8        29.85F
PEORIA         CLOUDY    67  61  81 CALM      29.87F
$$

NOTE: "FAIR" INDICATES FEW OR NO CLOUDS BELOW 12,000 FEET WITH NO
SIGNIFICANT WEATHER AND/OR OBSTRUCTIONS TO VISIBILITY. WIND
SPEEDS ARE IN MILES-PER-HOUR.




USA.gov is the U.S. government's official web portal to all federal, state and local government web resources and services.